Tracking 30074 objects as of 13-Jan-2025
HD Live streaming from Space Station
objects crossing your sky now

ONEWEB-0665

Track ONEWEB-0665 now!
10-day predictions
ONEWEB-0665 is classified as:


NORAD ID: 55825
Int'l Code: 2023-029AF
Perigee: 1,211.8 km
Apogee: 1,214.1 km
Inclination: 87.9 °
Period: 109.5 minutes
Semi major axis: 7583 km
RCS: Unknown
Launch date: March 9, 2023
Source: United Kingdom (UK)
Launch site: AIR FORCE EASTERN TEST RANGE (AFETR)
Your satellite tracking list
Your tracking list is empty




NASA's NSSDC Master Catalog

Two Line Element Set (TLE):
1 55825U 23029AF  25012.81719857  .00000211  00000-0  53550-3 0  9992
2 55825  87.8988  33.1945 0001536  97.8114 262.3190 13.14502806 91042
Source of the keplerian elements: AFSPC